EHI
47 57 66 69 69 67 62 58 49 39 35 32 25 17 10 4 3 7 10 13 14 15 14 11 9 8 8 7 4 1 0 0 0 0 0 0 0 0 0 0 0 0 0
48 58 69 75 76 74 69 64 54 45 39 34 26 18 12 6 3 5 9 12 14 15 15 13 11 10 9 8 6 3 2 1 0 0 0 0 0 0 0 0 0 0 0
50 59 72 82 84 81 78 72 62 51 43 37 31 25 20 13 7 6 7 9 11 13 15 15 13 12 11 9 8 7 6 4 2 0 0 0 0 0 0 0 0 0 0
50 58 71 83 87 85 83 78 69 58 47 40 36 34 30 21 12 9 7 6 8 12 14 14 13 13 11 10 8 7 7 6 3 1 0 0 0 0 0 0 0 0 0
48 55 68 79 86 87 85 82 75 64 54 45 40 39 35 24 15 12 9 5 6 10 12 12 12 12 11 10 7 6 6 6 4 2 1 0 0 0 0 0 0 0 0
47 53 64 75 83 86 87 83 77 69 61 52 44 39 34 26 19 16 13 9 8 10 12 12 11 10 10 8 6 5 5 5 5 3 2 1 1 1 0 0 0 0 0
48 54 63 72 81 87 88 84 78 72 66 59 49 39 34 28 23 18 15 13 12 12 13 13 12 11 8 6 4 4 4 4 3 3 2 2 2 2 1 1 1 0 0
48 55 64 72 80 87 89 86 79 72 67 61 51 41 34 29 23 19 17 16 15 15 14 14 14 13 11 7 6 5 4 3 2 1 1 2 2 3 3 2 2 1 0
46 53 61 69 78 82 84 83 78 71 66 60 51 43 37 31 25 23 21 18 16 16 16 16 16 15 13 11 10 9 6 4 3 2 2 2 2 2 3 3 3 2 1
43 49 57 64 69 72 75 77 75 71 66 60 54 47 41 35 29 28 26 21 16 16 16 16 15 14 13 13 13 12 8 5 4 3 3 3 2 1 2 3 3 3 3
40 45 51 56 59 62 68 72 73 71 67 62 58 52 46 38 33 31 27 21 16 15 15 14 13 15 16 15 15 14 10 6 4 3 3 3 2 2 2 3 3 3 3
42 43 46 49 53 56 62 67 71 71 69 65 58 52 47 40 35 32 26 19 15 13 12 12 14 19 20 17 15 14 11 8 5 4 3 3 3 3 3 4 4 4 4
44 44 45 48 52 54 57 60 66 70 70 65 57 50 45 42 37 32 24 18 14 12 10 11 15 18 18 16 14 13 12 11 8 6 5 4 4 3 4 4 5 5 5
45 44 46 48 52 54 54 55 60 66 67 64 56 49 44 41 37 30 22 15 12 10 9 8 10 13 13 12 12 12 12 11 9 7 6 5 4 4 3 4 4 4 4
44 43 42 44 48 52 53 53 56 62 65 64 57 49 43 38 33 27 20 13 10 9 8 6 6 8 9 10 11 12 11 10 8 7 7 5 4 3 2 2 2 2 2
43 41 38 36 40 46 49 51 54 58 63 62 57 49 43 38 32 26 21 17 13 11 8 6 6 6 7 8 9 10 10 8 7 7 7 5 3 1 1 1 0 1 1
42 39 35 33 34 38 43 45 49 54 57 58 55 51 46 40 34 29 26 24 21 16 11 7 7 7 6 6 5 5 6 6 6 6 6 4 2 1 1 0 0 1 1
40 37 35 36 36 37 40 43 45 49 51 51 51 51 48 42 37 33 32 30 26 19 12 8 7 6 6 5 3 2 2 3 5 6 5 4 3 2 1 0 0 1 2
35 34 35 39 41 40 41 44 46 46 46 45 46 47 45 42 37 34 32 30 25 18 12 8 7 6 4 3 1 0 0 1 3 4 4 5 4 3 1 0 0 1 1
34 33 34 38 40 40 41 44 44 43 41 40 41 41 41 39 35 31 27 24 22 17 12 8 6 5 3 1 0 0 0 1 2 3 3 3 3 2 1 0 0 0 0
33 31 31 33 34 35 39 40 39 38 36 36 37 38 37 35 31 25 21 20 18 15 12 9 5 3 1 0 0 0 0 1 1 2 2 1 1 1 0 0 0 0 0
25 24 24 25 25 28 33 35 33 31 30 30 32 33 33 30 25 21 19 18 17 15 13 10 5 1 0 0 0 0 0 1 0 0 0 0 0 0 0 0 0 0 0
15 16 17 18 17 19 23 25 26 24 23 23 24 26 26 22 18 16 15 15 15 13 11 9 5 1 0 0 0 0 0 0 0 0 0 0 0 0 0 0 0 0 0
10 11 13 14 12 12 13 16 18 18 16 16 16 17 18 15 12 10 10 10 10 8 7 7 5 2 0 0 1 1 1 1 1 1 0 0 0 0 0 0 1 1 1
6 7 9 10 8 7 8 10 11 11 11 10 10 10 11 10 8 6 5 5 5 5 5 5 4 2 0 1 1 2 3 2 2 1 1 1 1 1 1 1 2 2 2
4 5 6 6 6 5 5 6 6 6 7 8 9 8 7 8 7 5 4 3 3 4 4 4 4 2 1 2 2 3 3 3 2 1 2 2 2 2 2 2 3 3 3
Wind_Speed
11 11 12 12 12 10 10 9 9 7 6 4 3 3 3 2 2 3 4 4 4 4 4 3 2 3 2 2 2 1 1 0 1 1 2 2 2 3 4 4 4 6 7
10 11 12 12 13 12 11 10 10 9 7 5 4 3 3 3 3 3 3 4 4 4 4 4 3 3 2 2 2 2 1 1 1 2 1 2 4 3 3 3 4 6 5
14 14 14 13 13 13 13 12 11 9 8 7 4 3 2 1 1 2 2 3 5 5 4 5 4 3 3 3 3 3 3 2 1 2 3 2 3 3 3 3 3 4 4
12 13 13 13 15 14 12 11 11 10 8 8 6 6 5 4 4 3 3 3 4 4 5 5 5 4 3 3 3 3 3 3 1 1 1 3 3 2 2 3 2 3 4
14 14 15 15 14 13 12 11 10 9 9 8 8 7 5 4 3 3 4 4 4 4 5 5 4 4 3 4 3 3 3 3 3 2 1 1 1 2 2 3 3 2 3
14 13 13 11 10 11 11 11 10 10 9 9 8 8 7 5 5 4 5 4 3 3 4 5 4 4 4 4 4 4 4 3 3 2 2 2 2 2 2 3 3 3 3
12 12 12 12 12 13 13 12 12 11 10 10 8 8 8 7 7 6 6 5 3 3 5 4 4 4 4 5 4 4 4 4 3 3 2 2 2 2 2 2 2 2 3
11 12 14 14 13 14 13 12 13 11 10 10 9 7 7 6 5 6 5 5 4 4 4 4 5 5 5 4 3 3 4 3 3 4 3 2 2 2 2 2 2 1 2
11 12 12 12 12 13 13 13 13 11 11 10 9 7 7 6 6 5 5 4 4 4 5 5 5 5 4 4 4 3 3 3 3 3 3 2 2 2 2 2 3 3 2
8 9 9 10 10 10 10 11 11 12 10 10 9 8 7 7 6 4 5 5 5 4 4 5 5 5 4 4 4 3 3 3 3 3 3 3 2 1 1 1 2 3 3
9 8 8 8 8 8 9 9 9 9 9 10 9 8 7 6 5 5 5 5 4 4 4 4 4 4 4 4 3 3 3 3 2 2 2 3 2 1 1 1 1 1 2
7 8 7 6 6 6 7 8 9 9 10 9 8 8 6 6 6 6 5 4 4 4 4 4 4 3 3 3 3 3 3 3 2 2 1 2 1 1 1 1 1 1 2
7 6 6 6 5 5 5 6 8 9 9 8 8 7 6 6 6 6 4 4 4 3 3 3 3 2 2 2 2 3 2 2 2 2 2 2 1 1 1 1 1 1 1
7 5 4 4 4 4 5 5 6 7 8 8 8 7 7 7 6 5 4 4 3 3 3 3 3 2 2 1 1 2 2 2 1 1 1 1 1 2 1 1 1 1 1
7 5 3 3 3 3 4 5 6 6 8 8 8 7 6 5 5 4 4 4 3 3 3 3 2 2 2 1 1 2 2 2 1 0 0 1 1 1 0 0 1 0 0
5 5 4 3 3 4 4 4 5 6 7 7 7 6 5 5 5 5 4 4 4 3 3 3 3 3 2 2 3 2 1 1 2 1 0 0 1 2 2 3 2 2 1
4 4 2 2 2 3 4 5 5 5 6 6 6 6 6 5 5 5 4 4 4 4 4 4 4 3 2 3 4 3 2 2 2 1 1 1 2 2 1 2 4 3 3
5 4 3 3 2 2 3 4 5 6 5 5 5 5 5 5 5 5 4 4 4 4 4 4 3 3 2 3 4 4 3 3 2 2 2 2 2 3 2 2 3 3 2
4 3 3 3 2 3 3 5 5 5 5 5 5 5 5 5 5 4 4 4 5 5 4 3 3 3 2 3 4 5 4 3 3 3 3 3 2 3 3 3 3 3 3
5 4 4 5 4 3 4 5 4 4 4 4 5 5 5 5 5 5 4 4 5 5 4 4 3 3 3 4 5 5 3 3 2 2 3 5 5 6 5 3 2 2 2
6 6 6 5 4 3 4 5 3 2 2 3 4 4 4 5 5 5 5 5 5 6 5 5 5 5 4 5 5 4 3 3 2 2 2 3 6 6 6 4 2 1 1
7 6 6 5 4 4 5 5 3 1 2 4 4 5 4 4 5 6 5 6 6 6 5 5 5 4 4 5 5 6 5 4 3 2 1 2 6 6 6 5 5 6 4
4 4 4 4 3 3 4 5 2 2 4 6 6 6 7 6 6 6 5 5 5 5 4 4 4 3 3 4 6 6 6 6 4 3 4 6 7 6 6 7 8 6 4
3 3 4 5 4 3 4 4 3 4 6 6 6 7 8 7 7 5 5 4 4 4 3 4 3 3 3 3 3 2 3 5 5 4 5 7 8 7 6 6 5 4 3
3 3 4 5 4 4 4 4 4 5 7 7 6 7 7 7 8 7 6 5 4 3 4 3 3 4 3 2 3 3 3 3 3 4 4 5 5 5 4 4 4 4 4
3 4 5 5 4 4 4 4 4 6 7 7 6 5 6 6 6 7 8 12 9 9 8 7 6 5 5 6 8 8 8 8 7 6 5 4 4 4 3 3 4 4 3
Wind_Direction
180 172 170 169 166 166 166 167 166 170 160 151 152 149 163 172 173 180 176 174 174 163 153 156 160 157 159 174 166 147 146 256 152 70 338 319 277 237 224 212 202 210 212
170 173 173 172 173 173 173 171 174 173 172 169 164 163 162 175 180 183 182 182 178 176 173 169 174 170 163 169 171 157 148 265 168 144 108 337 330 312 248 221 213 216 209
177 179 180 180 177 179 179 179 178 176 176 170 153 146 124 123 154 185 197 203 193 190 182 180 179 180 172 187 203 183 175 205 259 172 155 165 239 293 302 256 228 215 210
180 181 182 183 185 185 181 177 176 176 176 171 168 169 175 186 200 187 191 208 206 200 194 187 184 189 190 197 211 200 188 173 224 267 213 192 180 186 297 312 285 241 223
186 187 189 188 187 183 181 178 175 178 178 178 178 179 185 190 188 179 188 203 211 209 204 195 192 193 196 201 208 201 197 184 192 207 223 231 216 184 188 274 302 304 261
188 191 190 181 180 179 180 178 177 183 182 182 183 186 187 186 181 192 197 206 215 220 214 204 199 200 202 207 210 207 205 206 203 207 203 196 193 206 193 229 262 275 278
180 181 181 179 181 182 182 180 181 187 187 186 189 190 191 189 191 194 198 199 209 220 219 211 205 208 210 211 205 205 215 210 208 214 218 214 209 196 187 200 246 267 285
180 182 185 184 183 184 182 180 183 187 187 190 195 193 192 192 195 195 195 199 206 213 213 209 212 214 211 211 201 208 220 215 218 226 220 219 228 208 192 186 189 268 300
181 180 178 177 178 181 184 184 183 183 185 189 190 192 193 193 197 197 195 199 206 212 209 207 212 218 213 206 192 206 218 212 215 227 230 231 235 224 212 191 179 179 249
166 166 165 167 174 179 183 182 184 187 186 187 191 197 198 197 193 189 198 205 210 208 200 208 211 214 213 204 195 206 218 208 222 221 228 241 243 244 231 218 208 187 193
162 159 163 170 170 163 173 177 183 183 184 187 190 195 194 193 189 196 205 208 209 202 201 202 201 200 206 201 196 205 204 210 229 232 219 237 234 236 250 244 230 212 188
142 148 154 153 154 164 171 175 181 185 187 187 186 191 189 187 192 202 208 202 204 202 196 185 187 194 195 193 189 202 206 202 212 224 212 246 239 243 259 256 264 252 220
116 119 128 144 157 169 175 177 183 185 182 180 180 184 188 190 195 201 200 192 188 186 172 157 161 173 178 181 191 188 190 189 202 200 200 242 224 255 269 259 266 268 269
108 111 124 139 154 168 173 175 183 177 173 172 176 183 190 190 190 186 181 178 172 169 166 156 163 169 164 163 175 163 160 160 173 180 196 231 212 231 251 274 283 273 285
100 109 128 150 157 157 162 172 174 169 167 166 176 187 186 174 166 169 170 166 165 167 155 148 152 147 132 126 132 144 144 147 144 141 140 117 92 76 58 352 299 294 312
109 115 118 121 148 151 154 157 154 156 156 163 177 179 173 167 165 169 163 156 153 150 139 144 131 113 122 119 124 130 129 127 132 134 82 52 36 27 39 41 52 81 114
88 86 98 114 129 139 140 149 152 143 151 164 170 173 173 172 171 167 155 156 156 140 129 122 118 121 117 114 116 131 125 106 100 110 94 26 27 32 33 38 53 53 55
74 65 56 57 75 98 114 129 128 129 150 166 167 163 160 161 160 156 157 157 147 136 127 125 131 127 109 119 123 115 102 92 82 80 94 87 29 22 33 52 50 47 29
80 74 71 76 76 93 106 118 128 139 152 161 163 161 158 152 151 153 152 143 130 124 121 122 131 131 109 103 118 115 101 89 70 64 71 81 68 34 66 78 63 33 6
63 57 54 68 74 74 90 103 119 127 149 163 165 160 152 151 155 150 140 127 122 123 117 104 93 96 87 75 92 108 106 96 77 57 50 56 59 52 64 85 83 52 344
65 59 57 58 57 61 80 84 88 116 162 144 137 134 142 151 144 131 120 113 114 108 102 97 83 75 69 66 68 86 101 113 97 69 43 35 46 51 54 66 67 30 6
66 62 62 51 41 46 69 66 49 36 84 100 106 108 113 126 121 114 110 109 111 109 103 95 83 63 53 56 60 73 89 97 105 92 57 50 56 57 55 57 51 52 52
79 86 90 70 43 44 78 82 44 58 81 85 89 92 87 87 90 96 99 97 97 102 102 103 97 72 48 46 57 69 79 81 88 83 75 70 64 60 52 44 44 43 44
84 88 95 86 58 44 67 81 70 71 85 89 91 94 95 90 82 85 88 93 94 100 103 108 108 93 66 44 33 52 70 73 74 71 65 62 55 50 43 38 36 34 39
77 76 88 89 72 54 57 66 72 81 85 88 92 96 97 101 94 83 72 83 83 108 128 128 123 114 93 41 66 97 83 84 91 91 68 56 51 46 38 33 26 22 26
89 84 83 83 74 64 62 59 73 91 98 95 93 101 105 103 105 104 83 58 68 74 83 91 103 92 97 99 91 86 83 82 91 86 75 64 57 50 38 31 22 18 19